TimeEST,TemperatureF,Dew PointF,Humidity,Sea Level PressureIn,VisibilityMPH,Wind Direction,Wind SpeedMPH,Gust SpeedMPH,PrecipitationIn,Events,Conditions,WindDirDegrees,DateUTC
12:53 AM,73.0,72.0,96,30.12,10.0,ENE,3.5,-,N/A,,Partly Cloudy,70,2013-01-04 05:53:00
1:53 AM,73.0,72.0,96,30.12,10.0,East,3.5,-,N/A,,Clear,80,2013-01-04 06:53:00
2:53 AM,72.0,71.1,97,30.11,10.0,East,3.5,-,N/A,,Clear,100,2013-01-04 07:53:00
3:53 AM,73.0,72.0,96,30.12,10.0,East,3.5,-,N/A,,Clear,90,2013-01-04 08:53:00
4:53 AM,73.0,72.0,96,30.12,9.0,ENE,3.5,-,N/A,,Clear,70,2013-01-04 09:53:00
5:53 AM,72.0,71.1,97,30.12,9.0,Calm,Calm,-,N/A,,Clear,0,2013-01-04 10:53:00
6:53 AM,71.1,70.0,96,30.13,9.0,Calm,Calm,-,N/A,,Clear,0,2013-01-04 11:53:00
7:53 AM,71.6,69.8,94,30.16,8.0,Calm,Calm,-,N/A,,Clear,0,2013-01-04 12:53:00
8:53 AM,77.0,73.9,90,30.18,9.0,North,3.5,-,N/A,,Partly Cloudy,360,2013-01-04 13:53:00
9:53 AM,79.0,73.0,82,30.20,10.0,NNE,4.6,-,N/A,,Partly Cloudy,30,2013-01-04 14:53:00
10:53 AM,81.0,73.0,77,30.19,10.0,NNE,5.8,-,N/A,,Scattered Clouds,30,2013-01-04 15:53:00
11:03 AM,80.6,73.4,79,30.19,10.0,NE,4.6,-,N/A,,Mostly Cloudy,50,2013-01-04 16:03:00
11:13 AM,78.8,71.6,78,30.19,10.0,ENE,3.5,-,N/A,,Scattered Clouds,60,2013-01-04 16:13:00
11:25 AM,80.6,73.4,79,30.19,10.0,ENE,3.5,-,N/A,,Mostly Cloudy,60,2013-01-04 16:25:00
11:50 AM,80.6,71.6,74,30.18,10.0,ESE,5.8,-,N/A,,Scattered Clouds,110,2013-01-04 16:50:00
11:53 AM,80.1,72.0,76,30.18,10.0,ESE,6.9,-,N/A,,Scattered Clouds,110,2013-01-04 16:53:00
12:53 PM,81.0,73.0,77,30.16,10.0,North,5.8,-,N/A,,Mostly Cloudy,360,2013-01-04 17:53:00
1:14 PM,78.8,71.6,78,30.15,10.0,North,6.9,-,N/A,,Overcast,350,2013-01-04 18:14:00
1:22 PM,78.8,73.4,83,30.14,10.0,NNE,6.9,-,N/A,,Overcast,30,2013-01-04 18:22:00
1:53 PM,78.1,73.0,84,30.14,10.0,North,5.8,-,N/A,,Overcast,360,2013-01-04 18:53:00
2:21 PM,77.0,71.6,83,30.13,10.0,NNE,8.1,-,N/A,,Mostly Cloudy,20,2013-01-04 19:21:00
2:53 PM,77.0,72.0,84,30.13,10.0,North,10.4,-,N/A,,Overcast,360,2013-01-04 19:53:00
3:45 PM,75.2,71.6,89,30.13,10.0,North,8.1,-,N/A,,Mostly Cloudy,360,2013-01-04 20:45:00
3:53 PM,75.0,71.1,87,30.13,10.0,North,8.1,-,N/A,,Overcast,10,2013-01-04 20:53:00
4:01 PM,75.2,71.6,89,30.13,10.0,North,8.1,-,N/A,,Overcast,10,2013-01-04 21:01:00
4:53 PM,75.9,72.0,87,30.14,10.0,NE,6.9,-,N/A,,Mostly Cloudy,40,2013-01-04 21:53:00
5:08 PM,75.2,71.6,89,30.15,10.0,NNE,8.1,-,N/A,,Scattered Clouds,30,2013-01-04 22:08:00
5:53 PM,73.9,71.1,91,30.16,10.0,NE,6.9,-,N/A,,Clear,50,2013-01-04 22:53:00
6:53 PM,73.0,71.1,93,30.18,10.0,NNE,5.8,-,N/A,,Clear,20,2013-01-04 23:53:00
7:53 PM,73.9,71.1,91,30.20,10.0,NNE,5.8,-,N/A,,Overcast,20,2013-01-05 00:53:00
8:33 PM,73.4,71.6,94,30.21,10.0,North,6.9,-,N/A,,Scattered Clouds,10,2013-01-05 01:33:00
8:51 PM,73.4,71.6,94,30.22,10.0,North,8.1,-,N/A,,Mostly Cloudy,360,2013-01-05 01:51:00
8:53 PM,73.0,71.1,93,30.22,10.0,North,9.2,-,N/A,,Mostly Cloudy,10,2013-01-05 01:53:00
9:07 PM,71.6,71.6,100,30.22,4.0,North,4.6,-,N/A,,Overcast,10,2013-01-05 02:07:00
9:22 PM,71.6,71.6,100,30.22,8.0,North,8.1,-,N/A,,Overcast,360,2013-01-05 02:22:00
9:48 PM,71.6,69.8,94,30.23,1.8,North,10.4,-,N/A,,Overcast,350,2013-01-05 02:48:00
9:53 PM,71.1,70.0,96,30.23,1.2,North,8.1,-,N/A,,Overcast,360,2013-01-05 02:53:00
10:07 PM,69.8,69.8,100,30.23,3.0,North,10.4,-,N/A,,Overcast,360,2013-01-05 03:07:00
10:25 PM,69.8,69.8,100,30.23,1.8,North,11.5,-,N/A,,Overcast,360,2013-01-05 03:25:00
10:53 PM,70.0,69.1,97,30.22,1.5,North,12.7,-,N/A,,Overcast,10,2013-01-05 03:53:00
11:13 PM,69.8,69.8,100,30.22,3.0,NNE,11.5,-,N/A,,Overcast,20,2013-01-05 04:13:00
11:42 PM,69.8,69.8,100,30.22,10.0,North,9.2,-,N/A,,Overcast,360,2013-01-05 04:42:00
11:51 PM,69.8,69.8,100,30.21,10.0,North,11.5,-,N/A,,Overcast,360,2013-01-05 04:51:00
11:53 PM,70.0,69.1,97,30.21,10.0,North,11.5,-,N/A,,Overcast,10,2013-01-05 04:53:00